カタログに戻る

HAWK-11C

運用中軍事VLEO
NORAD 62381·PAYLOAD·🇺🇸 United States

打ち上げ Dec 21, 2024 から Vandenberg Space Force Base

Loading…

次のパス (今後24時間)

TLE

最新Source: Space-Track

元期: Sep 14, 2026, 02:39 UTC

1 62381U 24247E   26257.11100464  .00005765  00000-0  19658-3 0  9993
2 62381  45.0032 161.2467 0003197   0.3240 359.7646 15.31359520 96630

AllMySatでHAWK-11Cをリアルタイム追跡

Download on the App Store